Location: Brantley
(31.5822°N, 86.2569°W)
Time: 22:07:14
(UTC+00:00)

A-11 Canister half - Pass Details

Date: 25 February 2026
Orbit: 1525 x 1683 km, 47.3° (Epoch: 10 March)

Event Time Altitude Azimuth Distance (km) Brightness Sun altitude
Rises 03:03:17 0° 307° (NW) 4,675 12.3 -43.7°
Reaches altitude 10° 03:06:19 10° 306° (NW) 3,691 11.5 -44.3°
Enters shadow 03:12:28 48° 299° (WNW) 1,929 9.6 -45.5°
